Location: Newark
(45.4422°N, 16.2769°E)
Time: 23:07:55
(UTC+00:00)

Courier 1B - Pass Details

Date: 20 December 2019
Orbit: 962 x 1209 km, 28.3° (Epoch: 21 January)

Event Time Altitude Azimuth Distance (km) Brightness Sun altitude
Rises 16:42:59 0° 225° (SW) 3,660 11.7 -14.9°
Reaches altitude 10° 16:46:44 10° 204° (SSW) 2,744 10.4 -15.5°
Maximum altitude 16:50:31 16° 169° (S) 2,375 9.6 -16.1°
Drops below altitude 10° 16:54:25 10° 134° (SE) 2,833 9.6 -16.8°
Enters shadow 16:55:45 - 126° (SE) 3,134 9.8 -17.0°
Sets 16:58:22 0° 114° (ESE) 3,840 - -17.5°
